Starlink 33604

operational
NORAD ID: 63070 Int'l Des: 2025-035 Owner: SPXS Country: US Constellation: starlink
LEOCIRCULAR

About Starlink 33604

Description loading...

Live Position

Loading 3D Globe...

Upcoming Passes

Altitude History

Altitude vs Time

uPlot chart will show altitude changes over time

Two-Line Element Set

1 63070U 25035U 25257.46332959 .00022842 00000-0 83666-3 0 9993
2 63070 43.0018 62.7050 0001264 183.4556 176.6287 15.27594308 32768
Epoch: Sep 14, 2025 • Age: 29 hours

Current Status

Altitude 482.0 km
Velocity 7.63 km/s
Sub-Earth Point -1.36°S, 0.07°E
Launch Date Feb 21, 2025
Age 0.5 years
Type internet

Technical Details

Classification Payload
Mass 575.00 kg
Dry Mass 530.00 kg
Total Mass 575.00 kg
Length 0.30 m
Diameter 4.10 m
Span 29.00 m
Shape Box + pan
Manufacturer SPXS
Bus Type Starlink V2MO
Phase Status In Orbit
Owner/State SPXS/US

Large Constellations

Loading constellations...